Weather History for Du Bois, PA

Change the Weather History Date:

Wednesday, February 13, 2013

  Actual Average Record
Temperature  
Mean Temperature 28 °F 26 °F  
Max Temperature 39 °F 34 °F 61 °F (1990)
Min Temperature 17 °F 18 °F -3 °F (1967)
Degree Days  
Heating Degree Days 37 39  
Month to date heating degree days 553 520  
Since 1 July heating degree days 4134 4464  
Cooling Degree Days 0 0  
Month to date cooling degree days 0 0  
Year to date cooling degree days 0 0  
Moisture  
Dew Point 23 °F    
Average Humidity 72    
Maximum Humidity 92    
Minimum Humidity 52    
Precipitation  
Precipitation T in 0.08 in 1.94 in (1971)
Month to date precipitation 0.25 1.05  
Sea Level Pressure  
Sea Level Pressure 29.77 in    
Wind  
Wind Speed 4 mph (WSW)    
Max Wind Speed 10 mph    
Max Gust Speed 14 mph    
Visibility 5 miles    
Events Snow    
T = Trace of Precipitation, MM = Missing Value Source: NWS Daily Summary

Daily Weather History Graph

Daily Weather History Graph

Search for Another Location

Airport:

Trip Planner

Search our weather history database for the weather conditions in past years. The results will help you decide how hot, cold, wet, or windy it might be!

Date:

Astronomy

Feb. 13, 2013 Rise Set
Actual Time 7:12 AM EST 5:47 PM EST
Civil Twilight 6:44 AM EST 6:16 PM EST
Nautical Twilight 6:11 AM EST 6:48 PM EST
Astronomical Twilight 5:39 AM EST 7:20 PM EST
Moon 8:38 AM EST (2/13) 9:51 PM EST (2/13)
Length of Visible Light 11h 31m
Length of Day
10h 35m
Waxing Crescent, 13% of the Moon is Illuminated
Feb 13
Waxing Crescent
Feb 17
First Quarter
Feb 25
Full
Mar 4
Last Quarter
Mar 11
New

Hourly Weather History & Observations

Time (EST) Temp. Windchill Dew Point Humidity Pressure Visibility Wind Dir Wind Speed Gust Speed Precip Events Conditions
12:56 AM 24.1 °F 18.2 °F 19.9 °F 84% 29.93 in 7.0 mi South 4.6 mph - N/A   Clear
1:56 AM 19.9 °F 14.9 °F 18.0 °F 92% 29.92 in 4.0 mi East 3.5 mph - N/A   Clear
2:56 AM 21.0 °F 14.6 °F 19.0 °F 92% 29.90 in 4.0 mi East 4.6 mph - N/A   Clear
3:56 AM 18.0 °F 9.8 °F 16.0 °F 92% 29.89 in 4.0 mi NNE 5.8 mph - N/A   Clear
4:56 AM 19.9 °F - 17.1 °F 89% 29.89 in 4.0 mi Calm Calm - N/A   Clear
5:56 AM 18.0 °F - 16.0 °F 92% 29.87 in 4.0 mi Calm Calm - N/A   Clear
6:56 AM 19.0 °F 11.1 °F 16.0 °F 88% 29.86 in 4.0 mi East 5.8 mph - N/A   Clear
7:21 AM 17.6 °F 10.7 °F 15.8 °F 93% 29.78 in 2.5 mi ENE 4.6 mph - N/A   Clear
7:45 AM 17.6 °F 12.3 °F 15.8 °F 93% 29.77 in 3.0 mi NE 3.5 mph - N/A   Clear
7:56 AM 19.0 °F 12.3 °F 16.0 °F 88% 29.84 in 2.5 mi NNE 4.6 mph - N/A   Clear
8:09 AM 19.4 °F - 17.6 °F 93% 29.77 in 3.0 mi Calm Calm - N/A   Clear
8:56 AM 21.9 °F 17.2 °F 19.0 °F 89% 29.82 in 3.0 mi ENE 3.5 mph - N/A   Clear
9:56 AM 24.1 °F 17.0 °F 21.9 °F 91% 29.80 in 4.0 mi East 5.8 mph - N/A   Clear
10:56 AM 30.0 °F 24.1 °F 24.1 °F 79% 29.80 in 7.0 mi ESE 5.8 mph - N/A   Clear
11:56 AM 33.1 °F 30.0 °F 24.1 °F 70% 29.76 in 9.0 mi Variable 3.5 mph - N/A   Clear
12:56 PM 36.0 °F - 24.1 °F 62% 29.74 in 10.0 mi Calm Calm - N/A   Clear
1:56 PM 37.9 °F - 24.1 °F 57% 29.71 in 10.0 mi Calm Calm - N/A   Mostly Cloudy
2:56 PM 37.9 °F 35.5 °F 21.9 °F 53% 29.68 in 10.0 mi SSW 3.5 mph - N/A   Overcast
3:56 PM 37.9 °F - 24.1 °F 57% 29.68 in 10.0 mi Calm Calm - N/A   Overcast
4:56 PM 37.0 °F - 24.1 °F 59% 29.67 in 10.0 mi Calm Calm - N/A   Overcast
5:39 PM 35.6 °F 29.2 °F 26.6 °F 70% 29.64 in 1.8 mi West 8.1 mph - 0.00 in Snow Light Snow
5:46 PM 33.8 °F 29.6 °F 28.4 °F 81% 29.64 in 1.0 mi WSW 4.6 mph - 0.00 in Snow Light Snow
5:56 PM 34.0 °F 28.0 °F 28.0 °F 79% 29.71 in 2.5 mi West 6.9 mph - 0.00 in Snow Light Snow
6:11 PM 33.8 °F 28.6 °F 28.4 °F 81% 29.65 in 1.5 mi West 5.8 mph - 0.00 in Snow Light Snow
6:39 PM 32.0 °F 27.5 °F 30.2 °F 93% 29.65 in 2.0 mi West 4.6 mph - 0.00 in Snow Light Snow
6:51 PM 30.2 °F 25.4 °F 30.2 °F 100% 29.65 in 4.0 mi West 4.6 mph - 0.00 in Snow Light Snow
6:56 PM 30.9 °F 26.2 °F 28.9 °F 92% 29.72 in 5.0 mi WSW 4.6 mph - 0.00 in   Overcast
7:56 PM 30.9 °F 25.2 °F 28.9 °F 92% 29.74 in 5.0 mi WSW 5.8 mph - N/A   Overcast
8:56 PM 30.0 °F 23.2 °F 28.0 °F 92% 29.75 in 4.0 mi WSW 6.9 mph - N/A   Partly Cloudy
9:56 PM 28.9 °F 22.8 °F 26.1 °F 89% 29.77 in 7.0 mi West 5.8 mph - N/A   Clear
10:56 PM 28.0 °F 20.8 °F 21.9 °F 78% 29.78 in 10.0 mi West 6.9 mph - N/A   Clear
11:56 PM 26.1 °F 18.4 °F 21.9 °F 84% 29.80 in 9.0 mi West 6.9 mph - N/A   Clear